Rifle, CO

10:33 PM MDT on August 19, 2017 (GMT -0600)
Garfield County Regional

Weather History for KRIL - February, 2014

Change the Weather History Date:

Monday, February 17, 2014

  Actual Average Record
Temperature  
Mean Temperature 34 °F 31 °F  
Max Temperature 47 °F 43 °F 62 °F (1977)
Min Temperature 20 °F 20 °F -8 °F (1939)
Degree Days  
Heating Degree Days 31 34  
Month to date heating degree days 622 614  
Since 1 July heating degree days 4913 4649  
Cooling Degree Days 0 0  
Month to date cooling degree days 0 0  
Year to date cooling degree days 0 0  
Moisture  
Dew Point 17 °F    
Average Humidity 49    
Maximum Humidity 77    
Minimum Humidity 21    
Precipitation  
Precipitation 0.00 in 0.03 in 0.36 in (1962)
Month to date precipitation 0.30 0.45  
Year to date precipitation 1.29 1.26  
Sea Level Pressure  
Sea Level Pressure 30.19 in    
Wind  
Wind Speed 2 mph (SSE)    
Max Wind Speed 13 mph    
Max Gust Speed 15 mph    
Visibility 10 miles    
Events      
T = Trace of Precipitation, MM = Missing Value Source: NWS Daily Summary

Daily Weather History Graph

Daily Weather History Graph

Search for Another Location

Airport or City:

Trip Planner

Search our weather history database for the weather conditions in past years. The results will help you decide how hot, cold, wet, or windy it might be!

Date:

Astronomy

Feb. 17, 2014 Rise Set
Actual Time 7:00 AM MST 5:49 PM MST
Civil Twilight 6:33 AM MST 6:17 PM MST
Nautical Twilight 6:01 AM MST 6:48 PM MST
Astronomical Twilight 5:30 AM MST 7:20 PM MST
Moon 8:46 PM MST (2/17) 8:03 AM MST (2/17)
Length of Visible Light 11h 44m
Length of Day
10h 49m
Waning Gibbous, 93% of the Moon is Illuminated
Feb 17
Waning Gibbous
Feb 22
Last Quarter
Mar 1
New
Mar 8
First Quarter
Mar 16
Full

Hourly Weather History & Observations

Time (MST) Temp. Windchill Dew Point Humidity Pressure Visibility Wind Dir Wind Speed Gust Speed Precip Events Conditions
12:53 AM 33.1 °F - 17.1 °F 52% 30.22 in 10.0 mi Calm Calm - N/A   Clear
1:53 AM 30.9 °F 23.5 °F 17.1 °F 57% 30.22 in 10.0 mi SSW 8.1 mph - N/A   Clear
2:53 AM 28.0 °F - 17.1 °F 63% 30.24 in 10.0 mi Calm Calm - N/A   Clear
3:53 AM 28.0 °F 19.3 °F 16.0 °F 61% 30.26 in 10.0 mi ESE 9.2 mph - N/A   Clear
4:53 AM 27.0 °F - 15.1 °F 61% 30.27 in 10.0 mi Calm Calm - N/A   Clear
5:53 AM 24.1 °F 18.2 °F 15.1 °F 69% 30.32 in 10.0 mi SE 4.6 mph - N/A   Clear
6:53 AM 24.1 °F 19.7 °F 15.1 °F 69% 30.31 in 10.0 mi South 3.5 mph - N/A   Clear
7:53 AM 21.9 °F 14.5 °F 15.1 °F 75% 30.36 in 10.0 mi ESE 5.8 mph - N/A   Clear
8:53 AM 28.9 °F - 17.1 °F 61% 30.34 in 10.0 mi Calm Calm - N/A   Clear
9:53 AM 32.0 °F - 15.1 °F 50% 30.32 in 10.0 mi Calm Calm - N/A   Clear
10:53 AM 35.1 °F - 17.1 °F 48% 30.28 in 10.0 mi Calm Calm - N/A   Clear
11:53 AM 37.0 °F 34.5 °F 17.1 °F 44% 30.24 in 10.0 mi SE 3.5 mph - N/A   Clear
12:53 PM 41.0 °F - 14.0 °F 33% 30.19 in 10.0 mi Calm Calm - N/A   Clear
1:53 PM 42.1 °F 40.2 °F 18.0 °F 38% 30.13 in 10.0 mi SE 3.5 mph - N/A   Clear
2:53 PM 45.0 °F 43.5 °F 8.1 °F 22% 30.08 in 10.0 mi SSE 3.5 mph - N/A   Clear
3:53 PM 46.9 °F - 9.0 °F 21% 30.06 in 10.0 mi Calm Calm - N/A   Clear
4:53 PM 44.1 °F 41.5 °F 17.1 °F 34% 30.07 in 10.0 mi SE 4.6 mph - N/A   Clear
5:53 PM 39.0 °F 34.8 °F 21.9 °F 50% 30.09 in 10.0 mi SSE 5.8 mph - N/A   Clear
6:53 PM 37.0 °F 34.5 °F 21.9 °F 54% 30.09 in 10.0 mi SSE 3.5 mph - N/A   Clear
7:53 PM 35.1 °F - 21.9 °F 59% 30.10 in 10.0 mi Calm Calm - N/A   Clear
8:53 PM 35.1 °F 32.2 °F 21.9 °F 59% 30.09 in 10.0 mi SSW 3.5 mph - N/A   Clear
9:53 PM 34.0 °F - 23.0 °F 64% 30.09 in 10.0 mi Calm Calm - N/A   Clear
10:53 PM 30.0 °F - 23.0 °F 75% 30.07 in 10.0 mi Calm Calm - N/A   Clear
11:53 PM 28.9 °F - 21.0 °F 72% 30.05 in 10.0 mi Calm Calm - N/A   Clear